Waarnemingen

Advertentie
Mijn weer
Le Touquet, Frankrijk (7003): temperatuur & dauwpunt: 17.05.2019 11:00:00 - 23.05.2019 11:00:00 (CEST)Le Touquet, Frankrijk (7003): temperatuur 5cm: 17.05.2019 11:00:00 - 23.05.2019 11:00:00 (CEST)Le Touquet, Frankrijk (7003): windsnelheid & windstoten: 17.05.2019 11:00:00 - 23.05.2019 11:00:00 (CEST)Le Touquet, Frankrijk (7003): windrichting: 17.05.2019 11:00:00 - 23.05.2019 11:00:00 (CEST)Le Touquet, Frankrijk (7003): luchtdruk: 17.05.2019 11:00:00 - 23.05.2019 11:00:00 (CEST)Le Touquet, Frankrijk (7003): zicht: 17.05.2019 11:00:00 - 23.05.2019 11:00:00 (CEST)Le Touquet, Frankrijk (7003): Zonneschijnduur: 17.05.2019 11:00:00 - 23.05.2019 11:00:00 (CEST)Le Touquet, Frankrijk (7003): neerslag: 17.05.2019 11:00:00 - 23.05.2019 11:00:00 (CEST)
Datum & Tijd tt [°C] td [°C] tt 5cm [°C] ff [km/u] ff [kn] fx [km/u] fx [kn] dd ppp [hPa] vv [km] sd [min] rr [mm]
23.05.2019 11:00:00 19,1 11,1 - 8 4 15 8 ZO 1018,7 60 - -
23.05.2019 10:00:00 16,6 9,8 15,3 5 3 14 8 ZZO 1018,8 24 52 0,0
23.05.2019 09:00:00 12,9 10,3 11,9 9 5 13 7 ZO 1018,9 7 60 0,0
23.05.2019 08:00:00 9,2 8,4 6,7 8 4 12 6 ZZO 1019,1 4,9 60 0,0
23.05.2019 07:00:00 5,6 5,3 3,5 7 4 11 6 ZZO 1018,8 3,4 27 0,0
23.05.2019 06:00:00 5,4 5,1 2,9 5 3 10 6 Z 1018,9 3,1 0 0,0
23.05.2019 05:00:00 5,4 5,0 3,4 4 2 9 5 Z 1019,0 2,4 0 0,0
23.05.2019 04:00:00 7,0 6,7 4,0 7 4 10 5 ZZO 1019,4 2,4 0 0,0
23.05.2019 03:00:00 7,5 7,2 4,4 7 4 11 6 ZZO 1019,5 1,7 0 0,0
23.05.2019 02:00:00 8,4 8,0 3,8 5 3 9 5 Z 1019,8 1,9 0 0,0
23.05.2019 01:00:00 9,0 8,5 4,1 4 2 9 5 Z 1020,1 0,8 0 0,0
23.05.2019 00:00:00 9,9 9,4 4,4 6 3 8 4 ZZO 1020,1 2,9 0 0,0
22.05.2019 23:00:00 10,7 9,9 5,7 4 2 6 3 ZO 1020,4 1,1 0 0,0
22.05.2019 22:00:00 11,9 10,3 8,6 2 1 7 4 Z 1020,3 7 8 0,0
22.05.2019 21:00:00 13,7 11,4 12,5 5 3 15 8 W 1020,3 16 45 0,0
22.05.2019 20:00:00 15,6 11,0 16,0 7 4 14 7 WZW 1020,3 19 60 0,0
22.05.2019 19:00:00 16,8 11,5 18,5 8 4 16 9 W 1020,3 23 60 0,0
22.05.2019 18:00:00 16,8 11,3 19,3 8 4 23 12 WZW 1020,5 20 46 0,0
22.05.2019 17:00:00 16,3 11,2 19,8 9 5 17 9 WZW 1020,8 29 0 0,0
22.05.2019 16:00:00 16,8 11,5 20,7 10 5 19 10 W 1020,9 30 19 0,0
22.05.2019 15:00:00 17,4 12,3 21,5 10 5 22 12 W 1021,1 20 44 0,0
22.05.2019 14:00:00 16,4 12,6 20,8 11 6 25 13 WZW 1021,2 19 45 0,0
22.05.2019 13:00:00 15,9 12,5 20,7 11 6 24 13 W 1021,3 52 22 0,0
22.05.2019 12:00:00 16,8 12,5 20,0 5 3 18 10 ZZW 1021,1 20 25 0,0
22.05.2019 11:00:00 15,4 11,6 15,7 5 3 14 7 Z 1020,8 16 21 0,0
22.05.2019 10:00:00 13,1 11,5 14,2 4 2 9 5 ZO 1020,8 7 5 0,0
22.05.2019 09:00:00 11,6 10,7 11,1 6 3 13 7 ZZO 1020,7 4,2 36 0,0
22.05.2019 08:00:00 9,8 9,5 8,7 5 3 10 5 ZZO 1020,3 3,2 41 0,0
22.05.2019 07:00:00 7,8 7,5 6,6 6 4 13 7 ZZO 1020,2 2,9 31 0,0
22.05.2019 06:00:00 7,2 6,8 4,5 9 5 14 7 ZZO 1020,2 2,0 0 0,0
22.05.2019 05:00:00 7,6 7,2 4,5 5 3 11 6 Z 1020,2 2,3 0 0,0
22.05.2019 04:00:00 7,8 7,4 4,5 5 3 10 6 Z 1020,2 2,7 0 0,0
22.05.2019 03:00:00 8,2 7,4 5,0 6 3 10 6 ZZO 1020,2 3,5 0 0,0
22.05.2019 02:00:00 8,7 7,8 4,8 5 3 10 6 Z 1020,0 6 0 0,0
22.05.2019 01:00:00 9,1 7,9 4,9 4 2 7 4 ZZO 1020,1 7 0 0,0
22.05.2019 00:00:00 9,6 8,0 6,1 4 2 6 3 ZZO 1019,9 13 0 0,0
21.05.2019 23:00:00 11,4 8,8 7,3 3 2 10 5 ZZW 1019,9 15 0 0,0
21.05.2019 22:00:00 11,8 8,8 9,6 7 4 11 6 ZO 1019,8 20 7 0,0
21.05.2019 21:00:00 14,2 9,2 13,2 7 4 18 10 NNW 1019,6 20 60 0,0
21.05.2019 20:00:00 15,6 10,6 15,7 9 5 20 11 NNW 1019,3 13 60 0,0
21.05.2019 19:00:00 16,8 9,7 17,9 8 5 24 13 WNW 1019,0 22 60 0,0
21.05.2019 18:00:00 17,1 10,5 19,6 10 6 26 14 W 1018,9 11 60 0,0
21.05.2019 17:00:00 17,4 11,2 21,3 14 8 27 14 W 1018,7 11 60 0,0
21.05.2019 16:00:00 18,1 10,9 21,7 13 7 25 14 WNW 1018,7 10 60 0,0
21.05.2019 15:00:00 18,1 11,4 21,5 14 8 27 14 NNW 1018,6 11 60 0,0
21.05.2019 14:00:00 17,5 11,3 22,4 19 10 36 19 NNW 1018,4 8 60 0,0
21.05.2019 13:00:00 17,3 10,9 23,3 24 13 41 22 NNW 1018,2 8 60 0,0
21.05.2019 12:00:00 17,5 12,2 22,3 22 12 32 17 NNW 1017,8 - 58 0,0
21.05.2019 11:00:00 17,4 12,7 17,4 11 6 26 14 NW 1017,6 10 60 0,0
21.05.2019 10:00:00 16,0 11,6 15,4 13 7 26 14 NNO 1017,3 7 60 0,0
21.05.2019 09:00:00 12,8 12,8 11,0 0 0 8 4 N 1017,0 2,8 49 0,0
21.05.2019 08:00:00 9,0 9,0 8,7 4 2 10 5 ZZO 1016,6 0,9 27 0,0
21.05.2019 07:00:00 7,7 7,7 8,7 5 3 9 5 ZZO 1016,1 0,1 0 0,2
21.05.2019 06:00:00 8,3 8,3 9,1 5 3 9 5 ZZO 1015,8 0,1 0 0,0
21.05.2019 05:00:00 9,1 9,0 7,7 4 2 8 4 Z 1015,6 0,1 0 0,0
21.05.2019 04:00:00 8,4 8,3 4,8 6 3 10 5 ZO 1015,6 1,1 0 0,0
21.05.2019 03:00:00 8,2 7,9 5,1 3 2 9 5 Z 1015,3 1,0 0 0,0
21.05.2019 02:00:00 8,7 8,2 5,5 3 2 8 4 ZZO 1015,3 1,5 0 0,0
21.05.2019 01:00:00 9,2 8,7 6,0 4 2 6 4 ZZO 1015,4 1,7 0 0,0
21.05.2019 00:00:00 9,9 9,4 6,7 3 2 6 4 Z 1015,4 3,4 0 0,0
20.05.2019 23:00:00 10,7 9,6 7,3 0 0 4 2 N 1015,1 3,3 0 0,0
20.05.2019 22:00:00 12,4 10,1 9,9 3 2 14 8 NW 1014,5 6 5 0,0
20.05.2019 21:00:00 13,6 9,6 12,6 7 4 24 13 NNW 1014,2 9 58 0,0
20.05.2019 20:00:00 15,1 10,3 15,6 13 7 29 15 NW 1013,8 8 60 0,0
20.05.2019 19:00:00 15,3 10,9 15,9 18 10 29 16 NW 1013,5 7 17 0,0
20.05.2019 18:00:00 14,9 10,9 17,8 15 8 31 17 NW 1013,6 7 22 0,0
20.05.2019 17:00:00 18,4 11,2 18,2 18 10 34 18 NNW 1013,1 11 39 0,0
20.05.2019 16:00:00 16,6 11,3 19,5 20 11 40 22 NW 1013,1 6 48 0,0
20.05.2019 15:00:00 16,3 11,0 19,5 24 13 44 24 NNW 1013,0 5 60 0,0
20.05.2019 14:00:00 15,3 11,5 18,9 30 16 48 26 NNW 1012,5 6 60 0,0
20.05.2019 13:00:00 15,0 10,6 19,0 29 16 45 25 NNW 1012,1 6 60 0,0
20.05.2019 12:00:00 14,6 10,8 15,0 27 15 39 21 NNW 1011,7 6 32 0,0
20.05.2019 11:00:00 13,6 11,5 13,4 22 12 32 18 NNW 1011,8 5 0 0,0
20.05.2019 10:00:00 13,1 11,5 13,1 14 7 24 13 NNW 1011,5 8 0 0,0
20.05.2019 09:00:00 12,7 11,4 11,7 10 6 18 10 NNW 1011,2 10 0 0,0
20.05.2019 08:00:00 11,7 11,1 11,3 5 3 11 6 N 1010,8 10 0 0,0
20.05.2019 07:00:00 11,5 10,9 11,0 4 2 19 11 NNW 1010,4 10 0 0,0
20.05.2019 06:00:00 11,6 10,8 11,0 12 7 26 14 NNW 1010,0 11 0 0,0
20.05.2019 05:00:00 11,6 10,8 11,1 17 9 30 16 NNW 1010,1 12 0 0,2
20.05.2019 04:00:00 11,5 10,9 11,1 11 6 20 11 N 1010,2 6 0 0,0
20.05.2019 03:00:00 11,6 10,7 11,1 14 7 25 14 NNW 1010,3 10 0 0,0
20.05.2019 02:00:00 11,6 10,5 11,0 13 7 23 12 N 1010,6 13 0 0,0
20.05.2019 01:00:00 11,5 10,4 10,9 13 7 22 12 NNW 1010,7 11 0 0,0
20.05.2019 00:00:00 11,3 10,4 10,9 11 6 19 10 NNW 1010,8 12 0 0,0
19.05.2019 23:00:00 11,3 10,4 10,8 8 4 16 9 N 1010,6 13 0 0,0
19.05.2019 22:00:00 11,5 10,4 11,0 10 5 16 9 NNW 1010,4 18 0 0,2
19.05.2019 21:00:00 12,1 9,8 11,5 9 5 24 13 NNO 1010,0 17 28 0,0
19.05.2019 20:00:00 13,3 9,7 12,9 11 6 24 13 NNO 1009,5 12 33 0,0
19.05.2019 19:00:00 14,0 10,2 14,4 13 7 29 16 NNO 1009,4 18 0 0,0
19.05.2019 18:00:00 14,1 10,3 14,6 16 9 29 16 NNO 1009,4 15 0 0,0
19.05.2019 17:00:00 14,4 11,4 14,0 11 6 31 17 NNO 1009,4 14 0 0,0
19.05.2019 16:00:00 14,2 11,2 15,1 16 8 29 16 NNO 1009,2 10 0 0,0
19.05.2019 15:00:00 14,8 11,0 15,6 14 8 28 15 NNO 1009,2 9 0 0,0
19.05.2019 14:00:00 15,2 11,4 15,0 13 7 27 15 NO 1009,1 8 0 0,0
19.05.2019 13:00:00 15,5 11,1 13,6 12 7 22 12 NNO 1008,9 9 0 0,0
19.05.2019 12:00:00 14,8 10,0 13,2 10 6 24 13 ONO 1008,8 9 0 0,0
19.05.2019 11:00:00 14,7 10,3 13,0 8 4 22 12 NO 1008,6 9 0 0,0
19.05.2019 10:00:00 13,7 9,7 12,6 5 3 19 11 NO 1008,1 7 0 0,0
19.05.2019 09:00:00 13,2 10,2 11,2 5 3 22 12 N 1007,8 4,8 0 0,0
19.05.2019 08:00:00 12,1 10,2 11,1 5 3 17 9 N 1007,7 4,1 0 0,0
19.05.2019 07:00:00 11,8 10,2 9,9 3 2 11 6 NNW 1007,4 3,0 0 0,0
19.05.2019 06:00:00 11,3 9,6 9,6 4 2 12 6 N 1007,2 2,9 0 0,0
19.05.2019 05:00:00 10,9 9,2 9,0 5 3 12 6 N 1007,3 2,9 0 0,0
19.05.2019 04:00:00 10,4 9,2 9,0 7 4 13 7 N 1007,4 3,1 0 0,0
19.05.2019 03:00:00 10,7 9,9 10,1 8 4 16 8 NNW 1007,6 2,0 0 0,0
19.05.2019 02:00:00 11,6 10,5 10,7 8 4 14 7 NW 1007,8 3,1 0 0,2
19.05.2019 01:00:00 11,7 10,4 11,0 9 5 14 8 NNO 1007,9 3,7 0 1,0
19.05.2019 00:00:00 12,8 10,7 11,2 3 2 23 12 ZZW 1008,2 2,7 0 0,0
18.05.2019 23:00:00 12,6 10,1 11,1 6 3 27 15 NO 1007,8 3,3 0 0,0
18.05.2019 22:00:00 12,4 10,8 11,4 15 8 31 17 NO 1007,6 2,7 0 0,0
18.05.2019 21:00:00 12,9 11,3 12,1 13 7 22 12 ONO 1007,3 1,9 0 4,0
18.05.2019 20:00:00 14,1 11,8 12,9 8 5 27 15 NO 1007,0 1,6 0 1,0
18.05.2019 19:00:00 16,7 11,4 16,7 13 7 27 15 NNO 1006,2 4,2 0 0,0
18.05.2019 18:00:00 17,3 12,4 18,1 11 6 21 11 NW 1005,8 3,9 2 0,0
18.05.2019 17:00:00 16,8 11,5 18,2 13 7 26 14 NNW 1006,1 4,8 0 0,0
18.05.2019 16:00:00 16,7 12,0 19,6 17 9 30 16 NNW 1006,1 2,9 0 0,0
18.05.2019 15:00:00 15,9 12,1 17,0 16 9 27 15 NW 1006,1 3,0 0 0,0
18.05.2019 14:00:00 15,6 11,4 17,2 15 8 30 16 NNW 1006,1 4,2 2 0,0
18.05.2019 13:00:00 15,8 11,4 19,8 22 12 32 17 NNW 1006,1 6 38 0,0
18.05.2019 12:00:00 16,9 10,5 19,6 10 5 19 10 N 1006,1 5 18 0,0
18.05.2019 11:00:00 16,0 10,1 18,6 5 3 17 9 OZO 1005,9 7 34 0,0
18.05.2019 10:00:00 15,1 10,3 15,3 8 5 19 10 O 1005,9 5 45 0,0
18.05.2019 09:00:00 13,2 9,8 12,2 10 5 17 9 OZO 1005,8 4,6 49 0,0
18.05.2019 08:00:00 10,9 9,8 8,4 6 3 11 6 ZO 1005,7 2,7 22 0,0
18.05.2019 07:00:00 9,5 8,9 5,2 0 0 5 3 N 1005,4 3,1 23 0,0
18.05.2019 06:00:00 9,4 8,2 6,0 0 0 4 2 N 1005,1 2,5 0 0,0
18.05.2019 05:00:00 10,8 9,1 9,7 2 1 5 3 NW 1005,4 3,6 0 0,0
18.05.2019 04:00:00 10,8 9,1 9,7 0 0 5 3 N 1005,6 4,0 0 0,0
18.05.2019 03:00:00 11,1 9,0 10,2 2 1 10 5 O 1005,7 4,5 0 0,0
18.05.2019 02:00:00 11,4 9,1 10,7 4 2 16 9 OZO 1006,0 4,7 0 0,0
18.05.2019 01:00:00 11,6 9,2 10,8 7 4 16 9 O 1006,1 5 0 0,0
18.05.2019 00:00:00 11,8 9,0 11,2 11 6 19 11 O 1006,1 6 0 0,0
17.05.2019 23:00:00 12,0 9,2 11,3 11 6 20 11 ONO 1006,2 6 0 0,0
17.05.2019 22:00:00 12,4 9,2 11,6 11 6 24 13 O 1006,1 5 0 0,0
17.05.2019 21:00:00 12,8 8,9 12,0 14 8 25 14 O 1005,9 5 0 0,0
17.05.2019 20:00:00 13,4 9,1 13,2 16 8 27 15 O 1005,8 6 0 0,0
17.05.2019 19:00:00 14,1 9,3 14,5 14 7 27 15 ONO 1005,9 7 0 0,0
17.05.2019 18:00:00 14,8 9,8 15,7 16 9 30 16 NO 1006,0 7 0 0,0
17.05.2019 17:00:00 15,5 9,8 17,2 14 8 28 15 ONO 1006,2 6 0 0,0
17.05.2019 16:00:00 15,6 9,3 17,8 10 5 25 13 NNO 1006,4 8 0 0,0
17.05.2019 15:00:00 15,6 9,5 15,9 6 3 22 12 NNO 1006,7 10 0 0,0
17.05.2019 14:00:00 14,4 8,6 15,2 12 7 23 12 O 1006,8 10 0 0,0
17.05.2019 13:00:00 13,9 8,5 15,2 12 7 25 13 O 1006,9 10 0 0,0
17.05.2019 12:00:00 13,7 9,1 14,7 13 7 26 14 ONO 1006,9 13 0 0,0
17.05.2019 11:00:00 12,8 9,1 12,3 13 7 21 12 O 1007,0 10 0 0,0

tt = temperatuur
td = dauwpunt
tt 5cm = temperatuur 5cm
ff = windsnelheid
fx = windstoten
dd = windrichting
ppp = luchtdruk
vv = zicht
sd = Zonneschijnduur
rr = neerslag

Weerstations in de omgeving